Regional Weather Roundup
Issued by NWS Cleveland, OH

Home | Current Version | Previous Version | Graphics & Text | Print | Product List | Glossary On
Versions: 1 2 3 4 5 6 7 8 9 10 11 12 13 14 15 16 17 18 19 20 21 22 23 24 25 26 27 28 29 30 31 32 33 34 35 36 37 38 39 40 41 42 43 44 45 46 47 48 49 50
000
ASUS41 KCLE 240302
RWRCLE
OHIO REGIONAL WEATHER ROUNDUP
NATIONAL WEATHER SERVICE CLEVELAND, OH
1100 PM EDT TUE AUG 23 2016

NOTE: "FAIR" INDICATES FEW OR NO CLOUDS BELOW 12,000 FEET WITH NO
SIGNIFICANT WEATHER AND/OR OBSTRUCTIONS TO VISIBILITY.

OHZ001>008-015>018-024>027-034-035-043-044-240400-
   NORTHWEST OHIO

CITY           SKY/WX    TMP DP  RH WIND       PRES   REMARKS
DEFIANCE       PTCLDY    68  60  75 CALM      30.20F
FINDLAY        CLEAR     69  59  70 SE7       30.21F
TOLEDO EXPRESS CLEAR     65  63  93 SE5       30.20F
TOLEDO EXEC    CLEAR     68  62  81 SE5       30.22F
LIMA           PTCLDY    66  61  84 SE5       30.22F
$$

OHZ009>014-019>023-028>033-038-089-240400-
   NORTHEAST OHIO

CITY           SKY/WX    TMP DP  RH WIND       PRES   REMARKS
CLE-HOPKINS    PTCLDY    71  58  63 CALM      30.26F
CLE-LAKEFRONT  CLEAR     73  59  61 E6        30.23F
CUY CO. ARPT   CLEAR     66  63  88 CALM      30.26F
LORAIN-ELYRIA  CLEAR     64  59  83 CALM      30.25S
ASHTABULA      CLEAR     59  59 100 CALM      30.28S
AKRON-CANTON   CLEAR     67  55  65 CALM      30.26F
WOOSTER        CLEAR     58  57  97 CALM      30.27S
MANSFIELD      CLEAR     65  59  81 CALM      30.27R
YOUNGSTOWN     CLEAR     68  57  68 S5        30.27S
$$

OHZ042-051>053-060>062-070>072-077>081-240400-
  SOUTHWEST OHIO

CITY           SKY/WX    TMP DP  RH WIND       PRES   REMARKS
CINC-COVINGTON MOCLDY    71  61  70 CALM      30.22F
CINC-LUNKEN    CLOUDY    66  64  93 CALM      30.21F
HAMILTON       CLOUDY    66  62  87 CALM      30.22F
DAYTON         MOCLDY    69  59  70 SE6       30.24F
WRIGHT-PAT AFB NOT AVBL
DAYTON GENERAL PTCLDY    71  58  63 SE6       30.22F
WILMINGTON     PTCLDY    66  61  84 E5        30.24F
$$

OHZ036-037-039>041-045>050-054>059-063>069-073>076-082>088-240400-
  CENTRAL AND SOUTHEAST OHIO

CITY           SKY/WX    TMP DP  RH WIND       PRES   REMARKS
COLUMBUS       MOCLDY    70  61  73 E3        30.24S
OSU AIRPORT    PTCLDY    68  59  73 CALM      30.24S
BOLTON FIELD   PTCLDY    63  60  92 CALM      30.25S
RICKENBACK AFB NOT AVBL
NEWARK         PTCLDY    62  60  93 CALM      30.25S
MARION         CLEAR     66  59  78 CALM      30.25S
LANCASTER      CLOUDY    63  61  93 CALM      30.25F
ZANESVILLE     PTCLDY    65  61  87 CALM      30.26S
NEW PHILLY     CLEAR     65  60  84 CALM      30.27S
$$




USA.gov is the U.S. government's official web portal to all federal, state and local government web resources and services.